Lethbridge,

5:13 AM MDT on May 20, 2018 (GMT -0600)
Lethbridge

Weather History for CYQL - September, 2012

Change the Weather History Date:

Saturday, September 15, 2012

  Actual Average Record
Temperature  
Mean Temperature 56 °F -  
Max Temperature 66 °F 66 °F 86 °F (2002)
Min Temperature 45 °F 40 °F 28 °F (2014)
Degree Days  
Heating Degree Days 10    
Growing Degree Days 6 (Base 50)    
Moisture  
Dew Point 31 °F    
Average Humidity 38    
Maximum Humidity 58    
Minimum Humidity 14    
Precipitation  
Precipitation 0.00 in - - ()
Sea Level Pressure  
Sea Level Pressure 30.12 in    
Wind  
Wind Speed 7 mph ()    
Max Wind Speed 13 mph    
Max Gust Speed -    
Visibility 11.7 miles    
Events      
Averages and records for this station are not official NWS values.
T = Trace of Precipitation, MM = Missing Value Source: Averaged Metar Reports

Daily Weather History Graph

Daily Weather History Graph

Search for Another Location

Airport or City:

Astronomy

Sep. 15, 2012 Rise Set
Actual Time 7:08 AM MDT 7:43 PM MDT
Civil Twilight 6:35 AM MDT 8:15 PM MDT
Nautical Twilight 5:57 AM MDT 8:53 PM MDT
Astronomical Twilight 5:16 AM MDT 9:33 PM MDT
Moon 6:46 AM MDT (9/15) 7:09 PM MDT (9/15)
Length of Visible Light 13h 39m
Length of Day
12h 35m
Waning Crescent, 0% of the Moon is Illuminated
Sep 15
Waning Crescent
Sep 15
New
Sep 22
First Quarter
Sep 29
Full
Oct 8
Last Quarter

Hourly Weather History & Observations

Time (MDT) Temp. Windchill Dew Point Humidity Pressure Visibility Wind Dir Wind Speed Gust Speed Precip Events Conditions
12:00 AM 59 °F - 32 °F 25% 29.97 in 10 mi NNW 5.8 mph - -  
12:00 AM 59.0 °F - 32.0 °F 36% 29.97 in 9.0 mi NNW 8.1 mph - N/A   Clear
1:00 AM 53.6 °F - 33.8 °F 47% 29.98 in 9.0 mi WSW 10.4 mph - N/A   Clear
2:00 AM 51.8 °F - 33.8 °F 50% 29.99 in 9.0 mi SW 12.7 mph - N/A   Clear
3:00 AM 51.8 °F - 33.8 °F 50% 30.01 in 9.0 mi SSW 6.9 mph - N/A   Mostly Cloudy
4:00 AM 48.2 °F - 33.8 °F 58% 30.04 in 9.0 mi WSW 9.2 mph - N/A   Clear
5:00 AM 46.4 °F 44.3 °F 32.0 °F 57% 30.07 in 9.0 mi West 4.6 mph - N/A   Clear
6:00 AM 46 °F - 31 °F 44% 30.11 in 10 mi WNW 10.4 mph - -  
6:00 AM 46.4 °F 41.5 °F 32.0 °F 57% 30.10 in 15.0 mi WNW 10.4 mph - N/A   Partly Cloudy
7:00 AM 46.4 °F 41.5 °F 32.0 °F 57% 30.14 in 25.0 mi NW 10.4 mph - N/A   Scattered Clouds
8:00 AM 48.2 °F - 33.8 °F 58% 30.18 in 25.0 mi NW 11.5 mph - N/A   Mostly Cloudy
9:00 AM 51.8 °F - 35.6 °F 54% 30.19 in 25.0 mi NNW 11.5 mph - N/A   Mostly Cloudy
10:00 AM 57.2 °F - 32.0 °F 38% 30.19 in 25.0 mi North 10.4 mph - N/A   Mostly Cloudy
11:00 AM 59.0 °F - 30.2 °F 34% 30.20 in 25.0 mi NE 8.1 mph - N/A   Mostly Cloudy
12:00 PM 63 °F - 28 °F 16% 30.19 in 10 mi NE 8.1 mph - -  
12:00 PM 62.6 °F - 28.4 °F 27% 30.19 in 25.0 mi ENE 8.1 mph - N/A   Mostly Cloudy
1:00 PM 64.4 °F - 24.8 °F 22% 30.19 in 25.0 mi East 6.9 mph - N/A   Mostly Cloudy
2:00 PM 66.2 °F - 24.8 °F 21% 30.18 in 25.0 mi ESE 5.8 mph - N/A   Mostly Cloudy
3:00 PM 66.2 °F - 26.6 °F 23% 30.15 in 25.0 mi East 8.1 mph - N/A   Mostly Cloudy
4:00 PM 66.2 °F - 28.4 °F 24% 30.15 in 25.0 mi ESE 5.8 mph - N/A   Mostly Cloudy
5:00 PM 66.2 °F - 28.4 °F 24% 30.13 in 25.0 mi ENE 8.1 mph - N/A   Mostly Cloudy
6:00 PM 66 °F - 28 °F 14% 30.12 in 10 mi ENE 6.9 mph - -  
6:00 PM 66.2 °F - 28.4 °F 24% 30.12 in 20.0 mi ENE 6.9 mph - N/A   Mostly Cloudy
7:00 PM 64.4 °F - 30.2 °F 28% 30.11 in 25.0 mi NE 3.5 mph - N/A   Mostly Cloudy
8:00 PM 59.0 °F - 32.0 °F 36% 30.12 in 20.0 mi NE 3.5 mph - N/A   Mostly Cloudy
9:00 PM 55.4 °F - 32.0 °F 41% 30.13 in 15.0 mi ENE 3.5 mph - N/A   Partly Cloudy
10:00 PM 51.8 °F - 32.0 °F 47% 30.14 in 15.0 mi NNE 4.6 mph - N/A   Clear
11:00 PM 46.4 °F 45.2 °F 32.0 °F 57% 30.17 in 9.0 mi NNE 3.5 mph - N/A   Clear